| time (UTC) | temp F | wind direction | speed knots | gust knots | rain 1hr in | rain 24hr in | rain mn in | humidity % | barometer mb |
| 20260507073011 | 49 | 0 | 0.0 | 0.0 | 0.00 | 0.15 | 0.00 | 97 | 1015.5 |
| 20260507070013 | 48 | 0 | 0.0 | 0.0 | 0.00 | 0.16 | 0.00 | 10 | 1015.3 |
| 20260507065011 | 48 | 0 | 0.0 | 0.0 | 0.00 | 0.17 | 0.00 | 10 | 1015.3 |
| 20260507064011 | 47 | 0 | 0.0 | 0.0 | 0.00 | 0.17 | 0.00 | 10 | 1015.3 |
| 20260507060011 | 47 | 0 | 0.0 | 0.0 | 0.00 | 0.20 | 0.00 | 10 | 1015.0 |
| 20260507055011 | 47 | 0 | 0.0 | 0.0 | 0.00 | 0.21 | 0.00 | 10 | 1014.9 |
| 20260507054011 | 46 | 0 | 0.0 | 0.0 | 0.00 | 0.22 | 0.00 | 10 | 1014.8 |
| 20260507053011 | 46 | 0 | 0.0 | 0.0 | 0.00 | 0.23 | 0.00 | 10 | 1014.7 |
| 20260507052010 | 46 | 0 | 0.0 | 0.0 | 0.00 | 0.24 | 0.00 | 10 | 1014.6 |
| 20260507051010 | 46 | 0 | 0.0 | 0.0 | 0.00 | 0.25 | 0.00 | 10 | 1014.5 |
| 20260507045011 | 45 | 0 | 0.0 | 0.0 | 0.00 | 0.26 | 0.00 | 10 | 1014.2 |
| 20260507044011 | 45 | 0 | 0.0 | 0.0 | 0.00 | 0.27 | 0.00 | 10 | 1014.1 |
| 20260507043010 | 45 | 0 | 0.0 | 0.0 | 0.00 | 0.27 | 0.00 | 10 | 1013.9 |
| 20260507042011 | 45 | 0 | 0.0 | 0.0 | 0.00 | 0.28 | 0.00 | 10 | 1013.9 |
| 20260507041011 | 45 | 0 | 0.0 | 0.0 | 0.00 | 0.28 | 0.00 | 10 | 1013.8 |
| 20260507040010 | 45 | 0 | 0.0 | 0.0 | 0.00 | 0.29 | 0.00 | 10 | 1013.7 |
| 20260507035010 | 45 | 0 | 0.0 | 0.0 | 0.00 | 0.30 | 0.00 | 10 | 1013.7 |
| 20260507034011 | 45 | 0 | 0.0 | 0.0 | 0.00 | 0.30 | 0.00 | 10 | 1013.7 |
| 20260507033011 | 45 | 0 | 0.0 | 0.0 | 0.00 | 0.31 | 0.00 | 10 | 1013.7 |
| 20260507032011 | 45 | 0 | 0.0 | 0.0 | 0.00 | 0.31 | 0.00 | 10 | 1013.6 |
| 20260507031011 | 45 | 0 | 0.0 | 0.0 | 0.00 | 0.31 | 0.00 | 10 | 1013.6 |
| 20260507030011 | 45 | 0 | 0.0 | 0.0 | 0.00 | 0.31 | 0.00 | 10 | 1013.5 |
| 20260507025011 | 45 | 0 | 0.0 | 0.0 | 0.00 | 0.32 | 0.00 | 10 | 1013.5 |
| 20260507024011 | 45 | 0 | 0.0 | 0.0 | 0.00 | 0.33 | 0.00 | 10 | 1013.5 |
| 20260507023010 | 45 | 0 | 0.0 | 0.0 | 0.00 | 0.34 | 0.00 | 10 | 1013.3 |
| 20260507022011 | 45 | 0 | 0.0 | 0.0 | 0.00 | 0.35 | 0.00 | 10 | 1013.3 |
| 20260507021011 | 45 | 0 | 0.0 | 0.0 | 0.00 | 0.35 | 0.00 | 10 | 1013.3 |
| 20260507020011 | 45 | 0 | 0.0 | 0.0 | 0.00 | 0.36 | 0.00 | 10 | 1013.3 |
| 20260507015010 | 45 | 0 | 0.0 | 0.0 | 0.00 | 0.37 | 0.00 | 10 | 1013.2 |
| 20260507014011 | 46 | 0 | 0.0 | 0.0 | 0.00 | 0.38 | 0.00 | 10 | 1013.2 |
| 20260507013011 | 46 | 0 | 0.0 | 0.0 | 0.00 | 0.39 | 0.00 | 10 | 1013.3 |
| 20260507011011 | 46 | 0 | 0.0 | 0.0 | 0.00 | 0.40 | 0.00 | 10 | 1013.2 |
| 20260507005011 | 46 | 0 | 0.0 | 0.0 | 0.00 | 0.43 | 0.00 | 10 | 1013.1 |
| 20260507004012 | 46 | 0 | 0.0 | 0.0 | 0.00 | 0.43 | 0.00 | 10 | 1013.1 |
| 20260507003011 | 46 | 0 | 0.0 | 0.0 | 0.00 | 0.44 | 0.00 | 10 | 1013.1 |
| 20260507001011 | 46 | 0 | 0.0 | 0.0 | 0.00 | 0.46 | 0.00 | 10 | 1013.0 |
| 20260507000013 | 46 | 0 | 0.0 | 0.0 | 0.00 | 0.47 | 0.00 | 10 | 1012.9 |
| 20260506233013 | 46 | 0 | 0.0 | 0.0 | 0.00 | 0.50 | 0.00 | 10 | 1012.8 |
| 20260506232012 | 47 | 0 | 0.0 | 0.0 | 0.00 | 0.51 | 0.00 | 10 | 1012.8 |
| 20260506231013 | 47 | 0 | 0.0 | 0.0 | 0.00 | 0.52 | 0.00 | 10 | 1012.7 |
| 20260506230013 | 47 | 0 | 0.0 | 0.0 | 0.00 | 0.53 | 0.00 | 10 | 1012.6 |
| 20260506225013 | 47 | 0 | 0.0 | 0.0 | 0.00 | 0.53 | 0.00 | 10 | 1012.6 |
| 20260506224014 | 47 | 0 | 0.0 | 0.0 | 0.00 | 0.54 | 0.00 | 10 | 1012.5 |
| 20260506223013 | 47 | 0 | 0.0 | 0.0 | 0.00 | 0.54 | 0.00 | 10 | 1012.3 |
| 20260506222013 | 47 | 0 | 0.0 | 0.0 | 0.00 | 0.54 | 0.00 | 10 | 1012.2 |
| 20260506221014 | 47 | 0 | 0.0 | 0.0 | 0.00 | 0.54 | 0.00 | 10 | 1012.1 |
| 20260506215014 | 47 | 0 | 0.0 | 0.0 | 0.00 | 0.55 | 0.55 | 10 | 1011.9 |
| 20260506214014 | 47 | 0 | 0.0 | 0.0 | 0.00 | 0.56 | 0.55 | 10 | 1011.8 |
| 20260506213013 | 47 | 0 | 0.0 | 0.0 | 0.00 | 0.57 | 0.55 | 10 | 1011.8 |
| 20260506212014 | 47 | 0 | 0.0 | 0.0 | 0.00 | 0.57 | 0.55 | 10 | 1011.7 |
| 20260506211012 | 47 | 0 | 0.0 | 0.0 | 0.00 | 0.58 | 0.55 | 10 | 1011.7 |
| 20260506210013 | 47 | 0 | 0.0 | 0.0 | 0.00 | 0.59 | 0.55 | 10 | 1011.7 |
| 20260506205014 | 47 | 0 | 0.0 | 0.0 | 0.00 | 0.60 | 0.55 | 10 | 1011.7 |
| 20260506204013 | 47 | 0 | 0.0 | 0.0 | 0.00 | 0.61 | 0.55 | 10 | 1011.7 |
| 20260506203013 | 47 | 0 | 0.0 | 0.0 | 0.00 | 0.61 | 0.55 | 10 | 1011.6 |
| 20260506202013 | 47 | 0 | 0.0 | 0.0 | 0.00 | 0.62 | 0.55 | 10 | 1011.6 |
| 20260506201012 | 47 | 0 | 0.0 | 0.0 | 0.00 | 0.62 | 0.55 | 10 | 1011.5 |
| 20260506200014 | 47 | 0 | 0.0 | 0.0 | 0.00 | 0.63 | 0.55 | 10 | 1011.4 |
| 20260506195013 | 47 | 0 | 0.0 | 0.0 | 0.00 | 0.64 | 0.55 | 10 | 1011.4 |
| 20260506194014 | 47 | 0 | 0.0 | 0.0 | 0.00 | 0.65 | 0.55 | 10 | 1011.3 |
| 20260506193013 | 47 | 0 | 0.0 | 0.0 | 0.00 | 0.65 | 0.55 | 10 | 1011.2 |
| 20260506192012 | 47 | 0 | 0.0 | 0.0 | 0.00 | 0.66 | 0.55 | 10 | 1011.2 |
| 20260506190012 | 48 | 0 | 0.0 | 0.0 | 0.00 | 0.67 | 0.55 | 10 | 1011.0 |
| 20260506185013 | 48 | 0 | 0.0 | 0.0 | 0.00 | 0.68 | 0.55 | 10 | 1010.9 |
| 20260506184012 | 48 | 0 | 0.0 | 0.0 | 0.00 | 0.68 | 0.55 | 10 | 1010.8 |
| 20260506183012 | 48 | 0 | 0.0 | 0.0 | 0.00 | 0.69 | 0.55 | 10 | 1010.7 |
| 20260506182012 | 48 | 0 | 0.0 | 0.0 | 0.00 | 0.70 | 0.55 | 10 | 1010.5 |
| 20260506181011 | 48 | 0 | 0.0 | 0.0 | 0.00 | 0.72 | 0.55 | 10 | 1010.5 |
| 20260506180012 | 48 | 0 | 0.0 | 0.0 | 0.00 | 0.72 | 0.55 | 10 | 1010.3 |
| 20260506175012 | 48 | 0 | 0.0 | 0.0 | 0.00 | 0.73 | 0.55 | 10 | 1010.3 |
| 20260506174013 | 48 | 0 | 0.0 | 0.0 | 0.00 | 0.73 | 0.55 | 10 | 1010.1 |
| 20260506173012 | 48 | 0 | 0.0 | 0.0 | 0.00 | 0.73 | 0.55 | 99 | 1010.1 |
| 20260506172012 | 48 | 0 | 0.0 | 0.0 | 0.00 | 0.73 | 0.55 | 98 | 1010.0 |
| 20260506165011 | 49 | 0 | 0.0 | 0.0 | 0.00 | 0.73 | 0.55 | 98 | 1009.9 |
| 20260506164012 | 49 | 0 | 0.0 | 0.0 | 0.00 | 0.73 | 0.55 | 98 | 1009.8 |
| 20260506163012 | 49 | 0 | 0.0 | 0.0 | 0.00 | 0.73 | 0.55 | 97 | 1009.8 |
| 20260506162012 | 49 | 0 | 0.0 | 0.0 | 0.00 | 0.73 | 0.55 | 97 | 1009.8 |
| 20260506161012 | 49 | 0 | 0.0 | 0.0 | 0.00 | 0.73 | 0.55 | 97 | 1009.8 |
| 20260506160011 | 49 | 0 | 0.0 | 0.0 | 0.00 | 0.73 | 0.55 | 96 | 1009.7 |
| 20260506155011 | 50 | 0 | 0.0 | 0.0 | 0.00 | 0.73 | 0.55 | 96 | 1009.6 |
| 20260506154013 | 50 | 0 | 0.0 | 0.0 | 0.00 | 0.73 | 0.55 | 96 | 1009.6 |
| 20260506153011 | 50 | 0 | 0.0 | 0.0 | 0.00 | 0.73 | 0.55 | 95 | 1009.5 |
| 20260506151012 | 50 | 0 | 0.0 | 0.0 | 0.00 | 0.73 | 0.55 | 95 | 1009.4 |
| 20260506150012 | 50 | 0 | 0.0 | 0.0 | 0.00 | 0.73 | 0.55 | 96 | 1009.4 |
| 20260506145013 | 50 | 0 | 0.0 | 0.0 | 0.00 | 0.73 | 0.55 | 95 | 1009.3 |
| 20260506144012 | 50 | 0 | 0.0 | 0.0 | 0.00 | 0.73 | 0.55 | 97 | 1009.3 |
| 20260506143011 | 50 | 0 | 0.0 | 0.0 | 0.00 | 0.73 | 0.55 | 97 | 1009.3 |
| 20260506142011 | 50 | 0 | 0.0 | 0.0 | 0.00 | 0.73 | 0.55 | 10 | 1009.3 |
| 20260506140012 | 48 | 0 | 0.0 | 0.0 | 0.00 | 0.73 | 0.55 | 10 | 1009.5 |
| 20260506135011 | 49 | 0 | 0.0 | 0.0 | 0.00 | 0.73 | 0.55 | 10 | 1009.4 |
| 20260506134011 | 49 | 0 | 0.0 | 0.0 | 0.01 | 0.73 | 0.55 | 10 | 1009.4 |
| 20260506133011 | 49 | 0 | 0.0 | 0.0 | 0.01 | 0.73 | 0.55 | 99 | 1009.4 |
| 20260506132011 | 50 | 0 | 0.0 | 0.0 | 0.01 | 0.74 | 0.55 | 99 | 1009.2 |
| 20260506131011 | 50 | 0 | 0.0 | 0.0 | 0.02 | 0.74 | 0.55 | 10 | 1009.1 |
| 20260506125011 | 50 | 0 | 0.0 | 0.0 | 0.02 | 0.74 | 0.55 | 10 | 1009.0 |
| 20260506124011 | 50 | 0 | 0.0 | 0.0 | 0.02 | 0.74 | 0.55 | 10 | 1008.9 |
| 20260506123011 | 50 | 0 | 0.0 | 0.0 | 0.02 | 0.73 | 0.54 | 10 | 1008.8 |
| 20260506122012 | 50 | 0 | 0.0 | 0.0 | 0.02 | 0.73 | 0.54 | 10 | 1008.7 |
| 20260506120011 | 50 | 0 | 0.0 | 0.0 | 0.02 | 0.73 | 0.54 | 10 | 1008.6 |
| 20260506115011 | 50 | 0 | 0.0 | 0.0 | 0.03 | 0.73 | 0.54 | 10 | 1008.5 |
| 20260506114011 | 50 | 0 | 0.0 | 0.0 | 0.03 | 0.73 | 0.54 | 10 | 1008.4 |
| 20260506113012 | 51 | 0 | 0.0 | 0.0 | 0.03 | 0.72 | 0.53 | 10 | 1008.4 |
| 20260506112012 | 51 | 0 | 0.0 | 0.0 | 0.02 | 0.72 | 0.52 | 10 | 1008.4 |
| 20260506111012 | 50 | 0 | 0.0 | 0.0 | 0.02 | 0.72 | 0.52 | 10 | 1008.4 |
| 20260506110012 | 50 | 0 | 0.0 | 0.0 | 0.02 | 0.71 | 0.51 | 10 | 1008.4 |
| 20260506105011 | 50 | 0 | 0.0 | 0.0 | 0.02 | 0.71 | 0.51 | 10 | 1008.3 |
| 20260506104011 | 50 | 0 | 0.0 | 0.0 | 0.01 | 0.70 | 0.50 | 10 | 1008.3 |
| 20260506103011 | 50 | 0 | 0.0 | 0.0 | 0.02 | 0.70 | 0.50 | 10 | 1008.3 |
| 20260506102012 | 50 | 0 | 0.0 | 0.0 | 0.01 | 0.69 | 0.50 | 10 | 1008.3 |
| 20260506101011 | 50 | 0 | 0.0 | 0.0 | 0.02 | 0.69 | 0.50 | 10 | 1008.1 |
| 20260506100012 | 50 | 0 | 0.0 | 0.0 | 0.02 | 0.69 | 0.50 | 10 | 1008.1 |
| 20260506095011 | 49 | 0 | 0.0 | 0.0 | 0.03 | 0.69 | 0.50 | 10 | 1008.0 |
| 20260506093012 | 49 | 0 | 0.0 | 0.0 | 0.06 | 0.69 | 0.50 | 10 | 1007.9 |
| 20260506092012 | 48 | 0 | 0.0 | 0.0 | 0.06 | 0.69 | 0.49 | 10 | 1007.9 |
| 20260506091011 | 48 | 0 | 0.0 | 0.0 | 0.06 | 0.69 | 0.49 | 10 | 1007.9 |
| 20260506090011 | 48 | 0 | 0.0 | 0.0 | 0.06 | 0.69 | 0.48 | 10 | 1007.8 |
| 20260506085012 | 48 | 0 | 0.0 | 0.0 | 0.06 | 0.68 | 0.47 | 10 | 1007.8 |
| 20260506084012 | 48 | 0 | 0.0 | 0.0 | 0.06 | 0.67 | 0.46 | 10 | 1007.7 |
| 20260506083011 | 48 | 0 | 0.0 | 0.0 | 0.06 | 0.66 | 0.46 | 10 | 1007.6 |
| 20260506082012 | 48 | 0 | 0.0 | 0.0 | 0.04 | 0.65 | 0.44 | 10 | 1007.5 |
| 20260506081012 | 48 | 0 | 0.0 | 0.0 | 0.04 | 0.64 | 0.43 | 10 | 1007.4 |